Weather History for Lakeview AWS, OR

Change the Weather History Date:

Wednesday, February 13, 2013

  Actual Average Record
Temperature  
Mean Temperature 28 °F -  
Max Temperature 42 °F 40 °F 56 °F (1934)
Min Temperature 15 °F 23 °F -17 °F (1949)
Degree Days  
Heating Degree Days 36    
Moisture  
Dew Point 25 °F    
Average Humidity 84    
Maximum Humidity 100    
Minimum Humidity 57    
Precipitation  
Precipitation 0.00 in - - ()
Sea Level Pressure  
Sea Level Pressure 30.36 in    
Wind  
Wind Speed 4 mph (NNE)    
Max Wind Speed 14 mph    
Max Gust Speed -    
Visibility 10 miles    
Events      
Averages and records for this station are not official NWS values.
T = Trace of Precipitation, MM = Missing Value Source: NWS Daily Summary

Daily Weather History Graph

Daily Weather History Graph

Search for Another Location

Airport:

Trip Planner

Search our weather history database for the weather conditions in past years. The results will help you decide how hot, cold, wet, or windy it might be!

Date:

Astronomy

Feb. 13, 2013 Rise Set
Actual Time 6:59 AM PST 5:32 PM PST
Civil Twilight 6:31 AM PST 6:01 PM PST
Nautical Twilight 5:58 AM PST 6:33 PM PST
Astronomical Twilight 5:25 AM PST 7:06 PM PST
Moon 8:27 AM PST (2/13) 9:45 PM PST (2/13)
Length of Visible Light 11h 29m
Length of Day
10h 32m
Waxing Crescent, 14% of the Moon is Illuminated
Feb 13
Waxing Crescent
Feb 17
First Quarter
Feb 25
Full
Mar 4
Last Quarter
Mar 11
New

Hourly Weather History & Observations

Time (PST) Temp. Windchill Dew Point Humidity Pressure Visibility Wind Dir Wind Speed Gust Speed Precip Events Conditions
12:15 AM 19.4 °F 11.5 °F 19.4 °F 100% 30.39 in 10.0 mi WNW 5.8 mph - N/A   Clear
12:35 AM 19.4 °F - 17.6 °F 93% 30.39 in 10.0 mi Calm Calm - N/A   Clear
12:55 AM 19.4 °F 14.3 °F 15.8 °F 86% 30.39 in 10.0 mi North 3.5 mph - N/A   Clear
1:15 AM 19.4 °F 8.6 °F 17.6 °F 93% 30.39 in 10.0 mi NNW 9.2 mph - N/A   Clear
1:35 AM 19.4 °F - 17.6 °F 93% 30.39 in 10.0 mi Calm Calm - N/A   Clear
1:55 AM 17.6 °F - 17.6 °F 100% 30.38 in 10.0 mi Calm Calm - N/A   Clear
2:15 AM 15.8 °F 10.2 °F 14.0 °F 93% 30.39 in 10.0 mi North 3.5 mph - N/A   Clear
2:35 AM 17.6 °F 10.7 °F 15.8 °F 93% 30.39 in 10.0 mi NNW 4.6 mph - N/A   Clear
2:55 AM 15.8 °F 6.1 °F 14.0 °F 93% 30.39 in 10.0 mi NNE 6.9 mph - N/A   Clear
3:15 AM 15.8 °F - 15.8 °F 100% 30.39 in 10.0 mi Calm Calm - N/A   Clear
3:35 AM 17.6 °F 12.3 °F 15.8 °F 93% 30.39 in 10.0 mi NW 3.5 mph - N/A   Clear
3:55 AM 17.6 °F - 15.8 °F 93% 30.38 in 10.0 mi Calm Calm - N/A   Clear
4:15 AM 17.6 °F 12.3 °F 17.6 °F 100% 30.37 in 10.0 mi SW 3.5 mph - N/A   Mostly Cloudy
4:35 AM 19.4 °F - 19.4 °F 100% 30.37 in 10.0 mi Calm Calm - N/A   Overcast
4:55 AM 21.2 °F 16.4 °F 19.4 °F 93% 30.37 in 10.0 mi NE 3.5 mph - N/A   Overcast
5:15 AM 21.2 °F 13.6 °F 19.4 °F 93% 30.38 in 10.0 mi NNE 5.8 mph - N/A   Overcast
5:35 AM 21.2 °F 14.9 °F 19.4 °F 93% 30.38 in 10.0 mi NNE 4.6 mph - N/A   Overcast
5:55 AM 23.0 °F 18.4 °F 21.2 °F 93% 30.37 in 10.0 mi ENE 3.5 mph - N/A   Overcast
6:15 AM 24.8 °F 20.5 °F 24.8 °F 100% 30.37 in 10.0 mi ESE 3.5 mph - N/A   Overcast
6:35 AM 24.8 °F - 21.2 °F 86% 30.38 in 10.0 mi Calm Calm - N/A   Overcast
6:55 AM 24.8 °F - 23.0 °F 93% 30.38 in 10.0 mi Calm Calm - N/A   Overcast
7:15 AM 24.8 °F - 24.8 °F 100% 30.39 in 10.0 mi Calm Calm - N/A   Overcast
7:35 AM 24.8 °F - 24.8 °F 100% 30.39 in 10.0 mi Calm Calm - N/A   Overcast
7:55 AM 26.6 °F - 24.8 °F 93% 30.39 in 10.0 mi Calm Calm - N/A   Overcast
8:15 AM 26.6 °F - 24.8 °F 93% 30.39 in 10.0 mi Calm Calm - N/A   Overcast
8:35 AM 26.6 °F 22.6 °F 26.6 °F 100% 30.39 in 10.0 mi ESE 3.5 mph - N/A   Mostly Cloudy
8:55 AM 26.6 °F - 26.6 °F 100% 30.40 in 10.0 mi Calm Calm - N/A   Overcast
9:15 AM 30.2 °F - 28.4 °F 93% 30.40 in 10.0 mi Calm Calm - N/A   Scattered Clouds
9:35 AM 28.4 °F 24.6 °F 26.6 °F 93% 30.41 in 10.0 mi ENE 3.5 mph - N/A   Partly Cloudy
9:55 AM 28.4 °F 24.6 °F 24.8 °F 86% 30.41 in 10.0 mi ENE 3.5 mph - N/A   Clear
10:15 AM 28.4 °F - 26.6 °F 93% 30.41 in 10.0 mi Calm Calm - N/A   Clear
10:35 AM 35.6 °F 32.8 °F 26.6 °F 70% 30.41 in 10.0 mi SE 3.5 mph - N/A   Clear
10:55 AM 33.8 °F 29.6 °F 26.6 °F 75% 30.40 in 10.0 mi ESE 4.6 mph - N/A   Clear
11:15 AM 33.8 °F 30.8 °F 26.6 °F 75% 30.40 in 10.0 mi ESE 3.5 mph - N/A   Clear
11:35 AM 35.6 °F 31.7 °F 28.4 °F 75% 30.39 in 10.0 mi ESE 4.6 mph - N/A   Clear
11:55 AM 33.8 °F 29.6 °F 28.4 °F 81% 30.38 in 10.0 mi SE 4.6 mph - N/A   Clear
12:15 PM 35.6 °F 31.7 °F 28.4 °F 75% 30.37 in 10.0 mi SE 4.6 mph - N/A   Clear
12:35 PM 37.4 °F 33.8 °F 28.4 °F 70% 30.37 in 10.0 mi SE 4.6 mph - N/A   Clear
12:55 PM 37.4 °F 34.9 °F 28.4 °F 70% 30.36 in 10.0 mi SE 3.5 mph - N/A   Clear
1:15 PM 37.4 °F 33.8 °F 26.6 °F 65% 30.35 in 10.0 mi SE 4.6 mph - N/A   Clear
1:35 PM 37.4 °F 33.8 °F 28.4 °F 70% 30.35 in 10.0 mi SE 4.6 mph - N/A   Clear
1:55 PM 41.0 °F 37.1 °F 28.4 °F 61% 30.34 in 10.0 mi South 5.8 mph - N/A   Clear
2:15 PM 39.2 °F 35.0 °F 28.4 °F 65% 30.33 in 10.0 mi SSW 5.8 mph - N/A   Clear
2:35 PM 39.2 °F 35.0 °F 26.6 °F 61% 30.33 in 10.0 mi SSW 5.8 mph - N/A   Clear
2:55 PM 41.0 °F 38.0 °F 28.4 °F 61% 30.33 in 10.0 mi SSW 4.6 mph - N/A   Clear
3:15 PM 39.2 °F 35.9 °F 28.4 °F 65% 30.33 in 10.0 mi South 4.6 mph - N/A   Clear
3:35 PM 39.2 °F - 26.6 °F 61% 30.33 in 10.0 mi Calm Calm - N/A   Clear
3:55 PM 39.2 °F - 28.4 °F 65% 30.32 in 10.0 mi Calm Calm - N/A   Clear
4:15 PM 42.8 °F 41.1 °F 28.4 °F 57% 30.33 in 10.0 mi West 3.5 mph - N/A   Clear
4:35 PM 39.2 °F - 28.4 °F 65% 30.32 in 10.0 mi Calm Calm - N/A   Clear
4:55 PM 35.6 °F 32.8 °F 28.4 °F 75% 30.32 in 10.0 mi NE 3.5 mph - N/A   Clear
5:15 PM 35.6 °F 31.7 °F 28.4 °F 75% 30.32 in 10.0 mi NE 4.6 mph - N/A   Clear
5:35 PM 33.8 °F 30.8 °F 28.4 °F 81% 30.32 in 10.0 mi NE 3.5 mph - N/A   Mostly Cloudy
5:55 PM 33.8 °F 28.6 °F 28.4 °F 81% 30.31 in 10.0 mi North 5.8 mph - N/A   Scattered Clouds
6:15 PM 32.0 °F 27.5 °F 28.4 °F 87% 30.31 in 10.0 mi NW 4.6 mph - N/A   Scattered Clouds
6:35 PM 30.2 °F 24.3 °F 26.6 °F 86% 30.32 in 10.0 mi NNW 5.8 mph - N/A   Partly Cloudy
6:55 PM 30.2 °F 22.6 °F 26.6 °F 86% 30.32 in 10.0 mi NNW 8.1 mph - N/A   Clear
7:15 PM 28.4 °F 21.2 °F 26.6 °F 93% 30.32 in 10.0 mi North 6.9 mph - N/A   Mostly Cloudy
7:35 PM 30.2 °F 22.6 °F 26.6 °F 86% 30.33 in 10.0 mi North 8.1 mph - N/A   Overcast
7:55 PM 30.2 °F 22.6 °F 26.6 °F 86% 30.33 in 10.0 mi North 8.1 mph - N/A   Mostly Cloudy
8:15 PM 28.4 °F 20.4 °F 26.6 °F 93% 30.33 in 10.0 mi North 8.1 mph - N/A   Partly Cloudy
8:35 PM 28.4 °F 19.7 °F 26.6 °F 93% 30.33 in 10.0 mi North 9.2 mph - N/A   Clear
8:55 PM 33.8 °F 24.8 °F 26.6 °F 75% 30.34 in 10.0 mi North 12.7 mph - N/A   Clear
9:15 PM 32.0 °F 25.6 °F 26.6 °F 80% 30.35 in 10.0 mi North 6.9 mph - N/A   Clear
9:35 PM 30.2 °F 24.3 °F 26.6 °F 86% 30.35 in 10.0 mi NNW 5.8 mph - N/A   Clear
9:55 PM 28.4 °F 19.7 °F 24.8 °F 86% 30.35 in 10.0 mi North 9.2 mph - N/A   Clear
10:15 PM 28.4 °F 19.1 °F 26.6 °F 93% 30.36 in 10.0 mi NNW 10.4 mph - N/A   Clear
10:35 PM 30.2 °F 21.3 °F 26.6 °F 86% 30.37 in 10.0 mi North 10.4 mph - N/A   Clear
10:55 PM 33.8 °F 26.4 °F 28.4 °F 81% 30.37 in 10.0 mi North 9.2 mph - N/A   Clear
11:15 PM 33.8 °F 25.3 °F 28.4 °F 81% 30.37 in 10.0 mi North 11.5 mph - N/A   Clear
11:35 PM 33.8 °F 24.3 °F 28.4 °F 81% 30.37 in 10.0 mi North 13.8 mph - N/A   Clear
11:55 PM 33.8 °F 26.4 °F 26.6 °F 75% 30.38 in 10.0 mi North 9.2 mph - N/A   Clear